This is the latest recevied weather packets stored in our database for station/object W0SS-13. If no packets are shown the sender has not sent any weather packets the latest 10 day(s).
| Time | Temp. | Humidity | Pressure | Rain* | Wind** | Luminosity | Snow |
|---|---|---|---|---|---|---|---|
| 1777945725 | 22.78° C | 60% | 1003.5 hPa | 0 mm | - | 0 W/m² | - |
| 1777945422 | 22.78° C | 60% | 1003.5 hPa | 0 mm | - | 0 W/m² | - |
| 1777945118 | 22.78° C | 59% | 1003.3 hPa | 0 mm | - | 0 W/m² | - |
| 1777944815 | 22.78° C | 59% | 1003.3 hPa | 0 mm | - | 0 W/m² | - |
| 1777944514 | 22.78° C | 60% | 1003.3 hPa | 0 mm | - | 0 W/m² | - |
| 1777944211 | 22.78° C | 59% | 1003.1 hPa | 0 mm | - | 1 W/m² | - |
| 1777943907 | 23.33° C | 58% | 1002.9 hPa | 0 mm | - | 2 W/m² | - |
| 1777943604 | 23.33° C | 58% | 1003 hPa | 0 mm | - | 3 W/m² | - |
| 1777943300 | 23.33° C | 57% | 1002.9 hPa | 0 mm | - | 5 W/m² | - |
| 1777942996 | 23.89° C | 57% | 1002.7 hPa | 0 mm | - | 7 W/m² | - |
| 1777942692 | 23.89° C | 56% | 1002.6 hPa | 0 mm | - | 10 W/m² | - |
| 1777942390 | 24.44° C | 56% | 1002.8 hPa | 0 mm | - | 15 W/m² | - |
| 1777942087 | 24.44° C | 55% | 1002.7 hPa | 0 mm | - | 19 W/m² | - |
| 1777941783 | 25° C | 54% | 1002.9 hPa | 0 mm | - | 24 W/m² | - |
| 1777941481 | 25° C | 54% | 1002.6 hPa | 0 mm | - | 27 W/m² | - |
| 1777941178 | 25° C | 52% | 1002.5 hPa | 0 mm | - | 30 W/m² | - |
| 1777940874 | 25.56° C | 53% | 1002.5 hPa | 0 mm | - | 37 W/m² | - |
| 1777940571 | 25.56° C | 52% | 1002.5 hPa | 0 mm | - | 39 W/m² | - |
| 1777940269 | 26.11° C | 51% | 1002.6 hPa | 0 mm | - | 53 W/m² | - |
| 1777939966 | 26.11° C | 49% | 1002.6 hPa | 0 mm | - | 77 W/m² | - |
| 1777939663 | 26.11° C | 51% | 1002.4 hPa | 0 mm | - | 91 W/m² | - |
| 1777939361 | 26.11° C | 50% | 1002.5 hPa | 0 mm | - | 93 W/m² | - |
| 1777939057 | 25.56° C | 50% | 1002.7 hPa | 0 mm | - | 110 W/m² | - |
| 1777938753 | 25.56° C | 50% | 1002.5 hPa | 0 mm | - | 83 W/m² | - |
| 1777938451 | 25.56° C | 49% | 1002.6 hPa | 0 mm | - | 81 W/m² | - |
* Rain latest hour (hover to see other rain measurements)
** Current wind speed in m/s (hover to see current wind gust speed)